Tracking 30685 objects as of 18-Jun-2025
HD Live streaming from Space Station
objects crossing your sky now

CAPE 1

Track CAPE 1 now!
10-day predictions
CAPE 1 is classified as:


NORAD ID: 31130
Int'l Code: 2007-012P
Perigee: 628.2 km
Apogee: 750.5 km
Inclination: 98.4 °
Period: 98.4 minutes
Semi major axis: 7060 km
RCS: 0.0406 m2 (small)
Launch date: April 17, 2007
Source: United States (US)
Launch site: TYURATAM MISSILE AND SPACE COMPLEX (TTMTR)

Uplink (MHz):
Downlink (MHz): 435.245
Beacon (MHz): 435.248
Mode: 1200bps AFSK
Call sign: K5USL
Status: Inactive

Your satellite tracking list
Your tracking list is empty




NASA's NSSDC Master Catalog

Two Line Element Set (TLE):
1 31130U 07012P   25168.78973794  .00001189  00000-0  22764-3 0  9997
2 31130  98.3983 130.0011 0086583 127.5953 233.3149 14.63410037965024
Source of the keplerian elements: AFSPC